• In Deutschland
  • Länderverzeichnis
  • Für 7 Tage
  • Wassertemperatur
  • Satellitenkarten
  • Wetterkarte
  • Widgets
  • user-avatar
    Anmelden

    Stündliche Wetter Flensburg

    Heute, 18 Oktober, Mittwoch

    Zeit Temperatur Niederschläge Wind Luftdruck Luftfeuchtigkeit
    00:00 +11°C° 0 mm 6 m/S 759 mmHg 80%
    01:00 +11°C° 0 mm 6 m/S 759 mmHg 81%
    02:00 +11°C° 0 mm 6 m/S 759 mmHg 82%
    03:00 +11°C° 0 mm 6 m/S 759 mmHg 83%
    04:00 +12°C° 0 mm 5 m/S 759 mmHg 85%
    05:00 +10°C° 0 mm 5 m/S 759 mmHg 86%
    06:00 +10°C° 0 mm 5 m/S 759 mmHg 87%
    07:00 +11°C° 0 mm 4 m/S 759 mmHg 88%
    08:00 +12°C° 0 mm 4 m/S 759 mmHg 84%
    09:00 +13°C° 0 mm 4 m/S 759 mmHg 81%
    10:00 +14°C° 0 mm 4 m/S 759 mmHg 78%
    11:00 +14°C° 0 mm 3 m/S 759 mmHg 76%
    12:00 +16°C° 0 mm 3 m/S 759 mmHg 74%
    13:00 +16°C° 0 mm 2 m/S 759 mmHg 73%
    14:00 +16°C° 0 mm 2 m/S 759 mmHg 75%
    15:00 +16°C° 0 mm 1 m/S 759 mmHg 77%
    16:00 +15°C° 0 mm 1 m/S 758 mmHg 79%
    17:00 +15°C° 0 mm 1 m/S 759 mmHg 82%
    18:00 +14°C° 0 mm 1 m/S 759 mmHg 85%
    19:00 +12°C° 0 mm 0 m/S 759 mmHg 88%
    20:00 +13°C° 0,1 mm 1 m/S 759 mmHg 88%
    21:00 +13°C° 0,1 mm 1 m/S 759 mmHg 89%
    22:00 +13°C° 0,1 mm 2 m/S 759 mmHg 89%
    23:00 +13°C° 0,2 mm 2 m/S 759 mmHg 90%

    Morgen, 19 Oktober, Donnerstag

    Zeit Temperatur Niederschläge Wind Luftdruck Luftfeuchtigkeit
    00:00 +12°C° 0,2 mm 3 m/S 759 mmHg 90%
    01:00 +12°C° 0,2 mm 3 m/S 759 mmHg 91%
    02:00 +12°C° 0,2 mm 3 m/S 758 mmHg 90%
    03:00 +12°C° 0,2 mm 4 m/S 758 mmHg 90%
    04:00 +12°C° 0,2 mm 4 m/S 758 mmHg 90%
    05:00 +12°C° 0,4 mm 4 m/S 758 mmHg 90%
    06:00 +12°C° 0,4 mm 5 m/S 758 mmHg 90%
    07:00 +12°C° 0,4 mm 5 m/S 758 mmHg 90%
    08:00 +12°C° 0,6 mm 5 m/S 758 mmHg 89%
    09:00 +12°C° 0,6 mm 5 m/S 758 mmHg 88%
    10:00 +13°C° 0,6 mm 5 m/S 759 mmHg 88%
    11:00 +13°C° 0,7 mm 5 m/S 758 mmHg 87%
    12:00 +13°C° 0,7 mm 5 m/S 758 mmHg 86%
    13:00 +14°C° 0,7 mm 5 m/S 758 mmHg 85%
    14:00 +14°C° 0,1 mm 5 m/S 758 mmHg 85%
    15:00 +14°C° 0,1 mm 6 m/S 758 mmHg 84%
    16:00 +14°C° 0,1 mm 6 m/S 757 mmHg 84%
    17:00 +13°C° 0 mm 6 m/S 757 mmHg 86%
    18:00 +13°C° 0 mm 6 m/S 758 mmHg 88%
    19:00 +13°C° 0 mm 6 m/S 758 mmHg 91%
    20:00 +13°C° 0 mm 6 m/S 758 mmHg 91%
    21:00 +11°C° 0 mm 6 m/S 758 mmHg 92%
    22:00 +11°C° 0 mm 6 m/S 758 mmHg 92%
    23:00 +11°C° 0 mm 6 m/S 757 mmHg 92%

    übermorgen, 20 Oktober, Freitag

    Zeit Temperatur Niederschläge Wind Luftdruck Luftfeuchtigkeit
    00:00 +11°C° 0 mm 6 m/S 757 mmHg 92%
    01:00 +11°C° 0 mm 6 m/S 757 mmHg 91%
    02:00 +13°C° 0 mm 6 m/S 757 mmHg 89%
    03:00 +13°C° 0 mm 5 m/S 757 mmHg 87%
    04:00 +13°C° 0 mm 5 m/S 757 mmHg 85%
    05:00 +13°C° 0,1 mm 5 m/S 757 mmHg 85%
    06:00 +13°C° 0,1 mm 5 m/S 757 mmHg 84%
    07:00 +13°C° 0,1 mm 5 m/S 757 mmHg 84%
    08:00 +13°C° 0 mm 5 m/S 757 mmHg 81%
    09:00 +14°C° 0 mm 5 m/S 757 mmHg 79%
    10:00 +15°C° 0 mm 5 m/S 758 mmHg 76%
    11:00 +15°C° 0 mm 5 m/S 758 mmHg 75%
    12:00 +16°C° 0 mm 5 m/S 758 mmHg 73%
    13:00 +16°C° 0 mm 5 m/S 758 mmHg 72%
    14:00 +16°C° 0 mm 6 m/S 758 mmHg 74%
    15:00 +15°C° 0 mm 6 m/S 758 mmHg 76%
    16:00 +15°C° 0 mm 6 m/S 757 mmHg 78%
    17:00 +14°C° 0,2 mm 5 m/S 758 mmHg 80%
    18:00 +14°C° 0,2 mm 5 m/S 758 mmHg 82%
    19:00 +14°C° 0,2 mm 5 m/S 758 mmHg 83%
    20:00 +13°C° 0,3 mm 5 m/S 758 mmHg 86%
    21:00 +13°C° 0,3 mm 5 m/S 758 mmHg 88%
    22:00 +13°C° 0,3 mm 5 m/S 758 mmHg 91%
    23:00 +13°C° 0,3 mm 5 m/S 758 mmHg 92%

    21 Oktober, Samstag

    Zeit Temperatur Niederschläge Wind Luftdruck Luftfeuchtigkeit
    00:00 +12°C° 0,3 mm 4 m/S 758 mmHg 93%
    01:00 +12°C° 0,3 mm 4 m/S 758 mmHg 95%
    02:00 +12°C° 0 mm 3 m/S 757 mmHg 95%
    03:00 +11°C° 0 mm 3 m/S 757 mmHg 95%
    04:00 +11°C° 0 mm 3 m/S 757 mmHg 95%
    05:00 +11°C° 0 mm 3 m/S 757 mmHg 95%
    06:00 +11°C° 0 mm 3 m/S 757 mmHg 95%
    07:00 +10°C° 0 mm 3 m/S 757 mmHg 95%
    08:00 +11°C° 0 mm 4 m/S 757 mmHg 92%
    09:00 +12°C° 0 mm 4 m/S 757 mmHg 90%
    10:00 +13°C° 0 mm 5 m/S 757 mmHg 87%
    11:00 +14°C° 0 mm 5 m/S 756 mmHg 85%
    12:00 +15°C° 0 mm 6 m/S 756 mmHg 83%
    13:00 +16°C° 0 mm 6 m/S 756 mmHg 80%
    14:00 +15°C° 0,2 mm 6 m/S 755 mmHg 83%
    15:00 +15°C° 0,2 mm 6 m/S 755 mmHg 85%
    16:00 +15°C° 0,2 mm 6 m/S 755 mmHg 88%
    17:00 +15°C° 1,1 mm 6 m/S 755 mmHg 89%
    18:00 +14°C° 1,1 mm 6 m/S 755 mmHg 91%
    19:00 +14°C° 1,1 mm 6 m/S 755 mmHg 93%
    20:00 +14°C° 0,2 mm 6 m/S 755 mmHg 92%
    21:00 +13°C° 0,2 mm 6 m/S 755 mmHg 91%
    22:00 +13°C° 0,2 mm 5 m/S 755 mmHg 90%
    23:00 +11°C° 0 mm 6 m/S 755 mmHg 89%

    22 Oktober, Sonntag

    Zeit Temperatur Niederschläge Wind Luftdruck Luftfeuchtigkeit
    00:00 +11°C° 0 mm 6 m/S 755 mmHg 88%
    01:00 +10°C° 0 mm 6 m/S 755 mmHg 87%
    02:00 +10°C° 0 mm 7 m/S 755 mmHg 86%
    03:00 +10°C° 0 mm 7 m/S 755 mmHg 86%
    04:00 +10°C° 0 mm 7 m/S 755 mmHg 85%
    05:00 +9°C° 0 mm 8 m/S 755 mmHg 85%
    06:00 +9°C° 0 mm 8 m/S 755 mmHg 84%
    07:00 +9°C° 0 mm 8 m/S 755 mmHg 84%
    08:00 +10°C° 0 mm 9 m/S 755 mmHg 82%
    09:00 +10°C° 0 mm 9 m/S 755 mmHg 80%
    10:00 +9°C° 0 mm 10 m/S 755 mmHg 79%
    11:00 +11°C° 0,1 mm 9 m/S 755 mmHg 77%
    12:00 +11°C° 0,1 mm 9 m/S 755 mmHg 76%
    13:00 +11°C° 0,1 mm 9 m/S 755 mmHg 75%
    14:00 +11°C° 0,2 mm 9 m/S 755 mmHg 76%
    15:00 +11°C° 0,2 mm 8 m/S 756 mmHg 77%
    16:00 +11°C° 0,2 mm 8 m/S 756 mmHg 78%
    17:00 +10°C° 0,1 mm 7 m/S 756 mmHg 80%
    18:00 +10°C° 0,1 mm 7 m/S 756 mmHg 81%
    19:00 +9°C° 0,1 mm 7 m/S 757 mmHg 82%
    20:00 +9°C° 0,3 mm 7 m/S 757 mmHg 83%
    21:00 +9°C° 0,3 mm 6 m/S 757 mmHg 83%
    22:00 +9°C° 0,3 mm 6 m/S 758 mmHg 83%
    23:00 +9°C° 0,3 mm 6 m/S 758 mmHg 83%

    23 Oktober, Montag

    Zeit Temperatur Niederschläge Wind Luftdruck Luftfeuchtigkeit
    00:00 +9°C° 0,3 mm 6 m/S 758 mmHg 82%
    01:00 +9°C° 0,3 mm 6 m/S 758 mmHg 82%
    02:00 +9°C° 0,2 mm 6 m/S 758 mmHg 81%
    03:00 +9°C° 0,2 mm 6 m/S 758 mmHg 81%
    04:00 +9°C° 0,2 mm 6 m/S 759 mmHg 80%
    05:00 +9°C° 0,1 mm 5 m/S 759 mmHg 81%
    06:00 +9°C° 0,1 mm 5 m/S 759 mmHg 81%
    07:00 +9°C° 0,1 mm 5 m/S 759 mmHg 82%
    08:00 +9°C° 0,2 mm 6 m/S 759 mmHg 84%
    09:00 +9°C° 0,2 mm 7 m/S 758 mmHg 87%
    10:00 +10°C° 0,2 mm 8 m/S 758 mmHg 89%
    11:00 +10°C° 0,9 mm 9 m/S 757 mmHg 89%
    12:00 +11°C° 0,9 mm 10 m/S 757 mmHg 90%
    13:00 +11°C° 0,9 mm 11 m/S 756 mmHg 90%
    14:00 +12°C° 0,7 mm 10 m/S 756 mmHg 90%
    15:00 +12°C° 0,7 mm 9 m/S 756 mmHg 91%
    16:00 +13°C° 0,7 mm 9 m/S 756 mmHg 91%
    17:00 +13°C° 0,4 mm 8 m/S 756 mmHg 91%
    18:00 +13°C° 0,4 mm 8 m/S 756 mmHg 92%
    19:00 +13°C° 0,4 mm 8 m/S 756 mmHg 93%
    20:00 +13°C° 1,2 mm 8 m/S 755 mmHg 93%
    21:00 +13°C° 1,2 mm 9 m/S 755 mmHg 93%
    22:00 +13°C° 1,2 mm 9 m/S 755 mmHg 93%
    23:00 +13°C° 2,5 mm 10 m/S 754 mmHg 92%
    Mehr zeigen